Location: Innerarity Island Observatory
(30.3139°N, 87.4867°W)
Time: 18:09:08
(UTC-05:00)

JAS-2 - Visible Passes

Search period start: 29 June 2015 00:00
Search period end: 09 July 2015 00:00
Orbit: 800 x 1322 km, 98.5° (Epoch: 28 June)

Date Brightness Start Highest point End Pass type
(mag) Time Alt. Az. Time Alt. Az. Time Alt. Az.
29 Jun 10.7 03:47:01 10° NNE 03:53:15 45° E 04:00:15 10° S visible
30 Jun 12.1 02:54:22 10° ENE 02:57:55 15° E 03:02:08 10° SE visible
30 Jun 9.8 04:36:46 10° N 04:43:20 73° WNW 04:50:42 10° SSW visible
01 Jul 10.8 03:42:05 10° NNE 03:48:22 42° E 03:55:22 10° S visible
02 Jul 12.1 02:49:43 10° ENE 02:52:59 14° E 02:56:57 10° SE visible
02 Jul 9.9 04:31:45 10° N 04:38:28 79° WNW 04:45:57 10° SSW visible
03 Jul 11.0 03:37:11 10° NNE 03:43:29 40° E 03:50:29 10° SSE visible
03 Jul 10.7 05:22:32 10° N 05:28:25 32° WNW 05:34:41 10° SW visible
04 Jul 12.2 02:45:08 10° ENE 02:48:03 13° E 02:51:41 10° ESE visible
04 Jul 9.9 04:26:45 10° N 04:33:37 84° WNW 04:41:12 10° SSW visible
05 Jul 11.1 03:32:17 10° NNE 03:38:37 37° E 03:45:33 10° SSE visible
05 Jul 10.7 05:17:25 10° N 05:23:33 35° WNW 05:30:06 10° SW visible
06 Jul 12.2 02:40:38 10° ENE 02:43:07 12° E 02:46:20 10° ESE visible
06 Jul 9.9 04:21:47 10° NNE 04:28:45 89° WNW 04:36:18 11° SSW visible
07 Jul 11.2 03:27:25 10° NE 03:33:44 35° E 03:40:34 10° SSE visible
07 Jul 10.6 05:12:21 10° N 05:18:42 38° WNW 05:25:29 10° SW visible
08 Jul 12.3 02:36:16 10° ENE 02:38:11 11° E 02:40:51 10° ESE visible
08 Jul 10.0 04:16:49 10° NNE 04:23:54 86° E 04:31:18 12° SSW visible
